{"data":{"norad_id":67862,"epoch":"2026-05-24T22:02:59.417664Z","epoch_age_seconds":92227,"freshness":"FRESH","line1":"1 67862U 26034N   26144.91874326  .00012703  00000+0  44022-3 0  9998","line2":"2 67862  53.1575 210.3852 0001177  66.3302 293.7822 15.30204520 15702","mean_motion":15.3020452,"eccentricity":0.0001177,"inclination_deg":53.1575,"raan_deg":210.3852,"arg_perigee_deg":66.3302,"mean_anomaly_deg":293.7822,"bstar":0.00044022,"rev_number":1570,"period_min":94.105067733037,"perigee_km":474.39493559717,"apogee_km":476.00821149739,"semimajor_km":6853.3385735473,"source":"CELESTRAK","updated_at":"2026-05-25T13:38:21.727340Z"}}